Regional Weather Roundup
Issued by NWS State College, PA

Home | Current Version | Previous Version | Graphics & Text | Print | Product List | Glossary Off
Versions: 1 2 3 4 5 6 7 8 9 10 11 12 13 14 15 16 17 18 19 20 21 22 23 24 25 26 27 28 29 30 31 32 33 34 35 36 37 38 39 40 41 42 43 44 45 46 47 48 49 50

000
ASUS41 KCTP 222203
RWRCTP

REGIONAL WEATHER ROUNDUP
NATIONAL WEATHER SERVICE STATE COLLEGE PA
600 PM EDT TUE AUG 22 2017

Note: "fair" indicates few or no clouds below 12,000 feet with no
significant weather and/or obstructions to visibility.

* = STATION THAT DOES NOT REPORT PRECIPITATION /E.G. RAIN...SNOW...ETC/
    THUNDER OR FOG.

PAZ002>004-007>009-013>016-020>023-029>032-222300-
WESTERN PENNSYLVANIA

CITY           SKY/WX    TMP DP  RH WIND       PRES   REMARKS
ERIE           CLOUDY    76  68  76 W16G29    29.77R
MEADVILLE      CLOUDY    75  70  84 SW12      29.82R
FRANKLIN*      CLOUDY    72  66  83 SW6       29.84S
NEW CASTLE     FAIR      76  69  79 W8G17     29.84R
BEAVER COUNTY  NOT AVBL
BUTLER*        CLOUDY    72  70  93 SW9       29.86S
PITTSBURGH INT CLOUDY    74  71  91 SW8       29.86R
PITTSBURGH     CLOUDY    73  68  84 SW12      29.87R
INDIANA*       CLOUDY    70  70 100 SW10      29.91S
LATROBE        NOT AVBL
WASHINGTON CO* CLOUDY    73  70  88 SW8       29.89S
$$

PAZ004>006-010>012-017>019-024>028-033>037-041-042-045-046-049>053-222300-
CENTRAL PENNSYLVANIA

CITY           SKY/WX    TMP DP  RH WIND       PRES   REMARKS
BRADFORD       CLOUDY    68  67  96 SW3       29.84F
DUBOIS         HVY RAIN  68  66  93 W20G31    29.86R VSB 1/4
CLEARFIELD     LGT RAIN  71  71 100 SW10      29.87R FOG
JOHNSTOWN      TSTM      68  66  93 W12       29.96R FOG
ALTOONA        LGT RAIN  80  68  66 W6        29.88R
STATE COLLEGE  PTSUNNY   77  70  78 W7        29.84R
WILLIAMSPORT   CLOUDY    79  73  82 W5        29.77R
SELINSGROVE    CLOUDY    85  73  67 VRB3      29.77F
FT INDIANTOWN  MOSUNNY   86  72  62 SW8       29.80F
CAPITAL CITY   MOSUNNY   89  69  51 SW9G17    29.79F
HARRISBURG     PTSUNNY   90  70  51 VRB6G16   29.79F HX  95
YORK           MOSUNNY   88  72  58 SW10      29.82S
$$

PAZ038>040-043-044-047-048-054-055-060>062-067>071-222300-
EASTERN PENNSYLVANIA

CITY           SKY/WX    TMP DP  RH WIND       PRES   REMARKS
SCRANTON       CLOUDY    85  68  56 SW7       29.79F
MOUNT POCONO   CLOUDY    78  69  73 SW12G22   29.87F
ALLENTOWN      MOSUNNY   89  70  53 SW16      29.79F
QUAKERTOWN*    CLEAR     86  72  62 SW10G17   29.83F
READING        SUNNY     87  75  67 S15       29.79F HX  96
LANCASTER      SUNNY     88  76  67 S13       29.81F HX  99
COATESVILLE    CLEAR     84  73  70 S12G20    29.85F
POTTSTOWN      SUNNY     86  72  62 S9        29.83F
BLUE BELL      SUNNY     86  73  66 SW15      29.83F
DOYLESTOWN     SUNNY     87  69  54 S9        29.81F
WILLOW GROVE   NOT AVBL
NORTH PHILA    SUNNY     91  70  49 SW17G25   29.82F HX  96
PHILADELPHIA   MOSUNNY   91  70  49 SW21G28   29.82F HX  96
$$




USA.gov is the U.S. government's official web portal to all federal, state and local government web resources and services.